Torna al catalogo

STARLINK-4751

AttivoComunicazioniVLEO
NORAD 53825·PAYLOAD·🇺🇸 United States

Lanciato Sep 19, 2022 da Cape Canaveral Space Force Station

Loading…

Prossimi Passaggi (prossime 24 ore)

TLE

AggiornatoSource: CelesTrak SupGP

Epoca: Sep 14, 2026, 21:49 UTC

1 53825C 22114H   26257.90951389 -.00029154  00000+0 -83422-3 0  2570
2 53825  53.1576 165.9349 0001260  93.6286 238.7210 15.35409367    19

Traccia STARLINK-4751 in tempo reale con AllMySat

Download on the App Store